Location: Biltmore Gardens
(41.6070°N, 83.4666°W)
Time: 12:56:21
(UTC+00:00)

Gbstr 26 Del rocket - Pass Details

Date: 14 July 2020
Orbit: 492 x 1264 km, 51.8° (Epoch: 05 August)

Event Time Altitude Azimuth Distance (km) Brightness Sun altitude
Rises 08:30:36 0° 305° (NW) 2,735 6.3 -15.5°
Reaches altitude 10° 08:32:40 10° 307° (NW) 1,909 5.5 -15.2°
Maximum altitude 08:36:59 83° 35° (NE) 673 3.2 -14.7°
Drops below altitude 10° 08:42:18 10° 124° (SE) 2,328 6.1 -14.0°
Sets 08:45:02 0° 125° (SE) 3,391 7.0 -13.7°
